Regional Weather Roundup
Issued by NWS

Home | Current Version | Previous Version | Graphics & Text | Print | Product List | Glossary On
Versions: 1 2 3 4 5 6 7 8 9 10 11 12 13 14 15 16 17 18 19 20 21 22 23 24 25 26 27 28 29 30 31 32 33 34 35 36 37 38 39 40 41 42 43 44 45 46 47 48 49 50
278
ASUS43 KBIS 221802
RWRND

NORTH DAKOTA REGIONAL WEATHER ROUNDUP
NATIONAL WEATHER SERVICE BISMARCK ND
100 PM CDT SUN OCT 22 2017

NOTE: "FAIR" INDICATES FEW OR NO CLOUDS BELOW 12,000 FEET WITH NO
SIGNIFICANT WEATHER AND/OR OBSTRUCTIONS TO VISIBILITY.


NDZ001>003-009>011-017-221900-
NORTHWEST NORTH DAKOTA

CITY           SKY/WX    TMP DP  RH WIND       PRES   REMARKS
WILLISTON      CLOUDY    48  29  47 SW12      29.66F
6HR MIN TEMP:  29; 6HR MAX TEMP:  48; 6HR PCP: TRACE;

MINOT          CLOUDY    52  27  38 S9        29.68F
MINOT AFB      PTSUNNY   51  27  39 SW17      29.65F
$$

NDZ018>021-031>035-040>046-221900-
SOUTHWEST NORTH DAKOTA

CITY           SKY/WX    TMP DP  RH WIND       PRES   REMARKS
BISMARCK       CLOUDY    59  27  29 SW20G26   29.77F
6HR MIN TEMP:  30; 6HR MAX TEMP:  59;

DICKINSON      CLOUDY    59  29  31 W22G35    29.71F
GARRISON         N/A     52  26  36 SW13      29.71F
6HR MIN TEMP:  32; 6HR MAX TEMP:  52;

HETTINGER ARPT CLOUDY    57  22  25 SW16      29.81F
$$

NDZ004>008-012>016-024-026-027-054-221900-
NORTHEAST NORTH DAKOTA

CITY           SKY/WX    TMP DP  RH WIND       PRES   REMARKS
GRAND FORKS    MOSUNNY   62  32  32 SW22G30   29.77F
GRND FRKS AFB  SUNNY     61  28  29 SW16      29.77F
DEVILS LAKE    PTSUNNY   56  32  40 SW16      29.74F
$$

NDZ022-023-025-028>030-036>039-047>053-221900-
SOUTHEAST NORTH DAKOTA

CITY           SKY/WX    TMP DP  RH WIND       PRES   REMARKS
FARGO          SUNNY     61  32  33 SW18      29.85F
6HR MIN TEMP:  38; 6HR MAX TEMP:  61;

JAMESTOWN      SUNNY     60  23  24 SW21      29.79F
$$





USA.gov is the U.S. government's official web portal to all federal, state and local government web resources and services.